GORIZONT 15 [-]

Last updated on Aug. 13, 2020, 5:30 a.m. UTC

1 19017U 88028A   20225.41695431 -.00000043  00000-0  00000-0 0  9996
2 19017  15.2314 347.5600 0034923 135.2084 238.3124  0.97827898 98621
UTC
Height (km)
Latitude
Longitude
Inclination
Orbital Period
UTC large
Height (km)
Speed (km/s)
/
Latitude / Longitude
Inclination (degrees)
Orbital Period (minutes)
Azimuth
Elevation
Range (km)
Doppler Factor
iOS Compass Heading
iOS Angle

Next 30 passes for location: Hong Kong

Rise time Rise Azimuth (degrees) Set time Set Azimuth (degrees) Duration Max altitude (degrees)

No matching passes for this satellites